Location: Potawatomi Wildlife Park
(41.2308°N, 86.1050°W)
Time: 06:34:31
(UTC-04:00)

Daily predictions for brighter satellites

Satellite Brightness Start Highest point End
(mag) Time Altitude Azimuth Time Altitude Azimuth Time Altitude Azimuth
SPOT 5 4.4 21:50:08 10° ESE 21:53:50 22° ENE 21:57:41 10° NNE
Cosmos 614 Rocket 4.1 21:50:02 10° S 21:55:09 59° ESE 22:00:15 10° NNE
Cosmos 1605 Rocket 4.1 21:49:04 10° N 21:55:21 85° E 22:01:41 10° S
YAOGAN 6 2.8 21:52:14 10° SSE 21:55:47 56° ENE 21:59:23 10° N
Cosmos 2237 Rocket 2.5 21:50:41 10° NNW 21:56:17 70° WSW 22:01:52 10° SSE
Helios 1B rocket 2.4 21:53:15 10° NNE 21:57:26 76° ESE 22:01:33 10° S
Helios 1A 3.0 21:54:11 10° SSE 21:58:20 87° W 22:02:31 10° NNW
CZ-4B DEB 2.6 21:55:49 10° SSE 21:58:45 68° ENE 22:01:42 10° N
USA 234 3.7 21:54:14 10° ENE 22:00:16 39° SE 22:06:16 10° SSW
Cosmos 1842 Rocket 3.7 21:57:13 10° N 22:01:38 79° W 22:05:58 10° S
CZ-3B R/B 4.4 21:59:39 10° S 22:02:18 32° ESE 22:09:06 10° NE
Meteor 2-15 Rocket 4.4 21:57:29 10° S 22:03:31 72° E 22:09:34 10° NNE
Atlas Centaur 2 3.0 22:02:18 10° SW 22:04:23 15° S 22:06:27 10° SSE
H-2A R/B 3.6 22:01:26 10° ESE 22:05:28 23° ENE 22:09:35 10° NNE
ERS-1 Rocket 3.3 22:02:25 10° SSE 22:07:17 54° ENE 22:12:13 10° N
Abrixas rocket 4.5 22:07:02 10° NW 22:09:41 22° N 22:12:19 10° ENE
Cosmos 2227 Rocket 3.1 22:05:25 10° SW 22:10:57 55° WNW 22:16:30 10° NNE
Cosmos 1818 3.9 22:05:51 10° NNW 22:11:13 56° NE 22:16:16 11° SE
Meteor 1-24 Rocket 4.2 22:07:31 10° SSW 22:13:27 71° WNW 22:19:13 10° N
Cosmos 1727 Rocket 4.1 22:07:33 10° S 22:13:53 87° W 22:20:17 10° N
Lacrosse 4 Rocket 3.3 22:10:01 10° SW 22:13:57 37° NW 22:18:01 10° NNE
Cosmos 1908 3.8 22:13:02 10° N 22:16:45 41° ENE 22:20:03 12° SSE
Cosmos 1674 3.2 22:13:16 10° SSE 22:16:48 40° E 22:20:21 10° NNE
Cosmos 1741 Rocket 4.1 22:11:38 10° S 22:16:52 62° ESE 22:22:07 10° NNE
SL-16 R/B 2.2 22:14:05 10° NNW 22:19:47 78° ENE 22:25:09 11° SSE
Cosmos 1184 Rocket 3.4 22:16:42 10° SSW 22:20:01 62° W 22:23:23 10° N
In-Cosmos 22 4.5 22:18:48 10° SSW 22:24:29 77° W 22:30:17 10° N
ARGOS 3.6 22:20:18 12° SE 22:25:12 50° ENE 22:30:25 10° N
NOSS 3-4 (A) 4.2 22:19:19 10° NW 22:26:20 65° WSW 22:33:42 10° SSE
NOSS 3-4 (C) 4.2 22:19:25 10° NW 22:26:26 65° WSW 22:33:47 10° SSE
Cosmos 1408 Rocket 4.3 22:23:35 12° SSE 22:27:06 34° E 22:31:01 10° NNE
KORONAS-FOTON 4.5 22:24:13 12° SSE 22:27:19 35° E 22:30:49 10° NNE
MetOp-A 4.2 22:22:20 10° SSE 22:27:33 67° ENE 22:32:52 10° N
Cosmos 1356 Rocket 3.5 22:28:05 10° S 22:32:14 59° E 22:36:28 10° NNE
Cosmos 1076 Rocket 3.5 22:28:19 10° S 22:32:38 65° E 22:36:58 10° NNE
Tiangong 1 0.8 22:30:48 10° W 22:33:36 78° NNW 22:36:22 10° ENE
Terra 3.5 22:36:22 12° ESE 22:39:16 21° ENE 22:42:44 10° NNE
Cosmos 2333 Rocket 4.4 22:35:51 10° NW 22:39:52 20° W 22:43:52 10° SW
Cosmos 2016 Rocket 4.2 22:36:34 10° N 22:42:44 56° E 22:47:32 17° SSE
Okean 3 Rocket 4.0 22:39:18 10° SSW 22:43:47 68° W 22:48:15 10° N
Cosmos 2221 2.9 22:40:02 10° NNW 22:44:23 64° W 22:48:41 10° S
Cosmos 2208 Rocket 4.1 22:44:51 10° NNW 22:50:12 82° WSW 22:54:25 17° SSE
NOAA 11 4.4 22:46:09 11° S 22:51:21 69° WSW 22:56:48 10° NNW
Cosmos 2227 4.3 22:48:13 10° S 22:53:50 60° ESE 22:59:27 10° NNE
Cosmos 2151 4.5 22:54:01 18° ESE 22:55:08 20° E 22:58:18 10° NE
RESURS DK-1 3.1 22:53:14 10° NNW 22:57:13 42° ENE 22:59:21 23° ESE
SL-08 RB Rocket 3.7 22:56:04 20° SSE 22:59:10 82° ENE 23:03:47 10° N
Cosmos 1242 Rocket 3.1 22:56:16 10° NNW 22:59:56 58° W 23:02:30 18° S
SPOT 1/Viking Rocket 3.6 22:56:35 21° SSE 23:00:03 68° ENE 23:05:11 10° N
YAOGAN 11 4.2 22:58:19 19° S 23:01:30 80° WSW 23:06:04 10° NNW
Cosmos 1766 Rocket 3.5 22:58:38 13° S 23:02:27 88° W 23:06:50 10° N
Meteor 2-2 Rocket 4.4 22:57:45 10° N 23:03:29 61° ENE 23:07:11 23° SSE
USA 245 3.2 23:03:34 25° S 23:05:18 68° W 23:09:14 10° NNW
EO 1 Delta rocket 3.8 23:04:01 23° SSE 23:06:59 72° ENE 23:11:35 10° N
Cosmos 1328 Rocket 3.7 23:06:38 10° N 23:10:55 57° E 23:12:49 30° SSE
Cosmos 1763 Rocket 4.1 23:07:16 10° N 23:12:07 42° ENE 23:14:35 25° ESE
Cosmos 2228 Rocket 3.4 23:07:52 10° N 23:12:23 56° E 23:14:28 30° SE
SL-14 R/B 3.4 23:10:43 30° SSE 23:12:28 58° E 23:16:22 10° NNE
Cosmos 1515 Rocket 4.0 23:10:16 10° N 23:14:26 44° ENE 23:16:02 31° SE
Cosmos 1328 3.8 23:15:50 31° S 23:17:38 67° E 23:21:40 10° NNE
Cosmos 1867 4.2 23:13:03 10° SW 23:18:24 58° NW 23:23:49 10° NNE
Cosmos 1743 Rocket 3.5 23:16:55 30° SSE 23:18:54 62° E 23:23:10 10° NNE
H-2A R/B 2.9 23:17:20 26° ESE 23:18:56 35° ENE 23:22:50 10° N
STPSAT 2 (USA 217) 4.5 23:19:23 19° SSW 23:22:38 76° ESE 23:27:11 10° NNE
Cosmos 1151 Rocket 3.6 23:19:18 10° N 23:23:30 43° ENE 23:24:51 33° ESE
Cosmos 2263 Rocket 2.8 23:21:44 29° SE 23:23:31 36° ESE 23:28:34 10° NE
Cosmos 1300 2.6 23:19:50 10° N 23:23:42 85° E 23:25:00 40° SSE
Cosmos 1626 3.2 23:25:43 28° E 23:25:46 28° E 23:29:00 10° NNE
SL-19 R/B 4.5 23:23:29 10° NNE 23:28:37 47° E 23:30:50 31° SSE
SPOT 5 3.8 23:28:21 18° SSW 23:31:33 42° W 23:36:20 10° NNW
Cosmos 1726 2.6 23:28:27 10° NNW 23:32:03 53° W 23:33:27 32° SSW
ATLAS 5 CENTAUR R/B 3.7 23:28:20 10° WSW 23:32:33 31° NW 23:37:08 10° NNE
Meteor 2-10 4.2 23:29:03 10° N 23:34:40 87° WSW 23:37:39 30° S
IGS 5A 3.5 23:33:58 42° SE 23:35:12 66° ENE 23:39:21 10° N
Cosmos 2123 Rocket 4.1 23:30:34 16° SSW 23:35:35 77° W 23:41:48 10° N
Lacrosse 5 1.8 23:30:59 10° NW 23:36:04 86° NE 23:38:09 36° SE
Cosmos 468 Rocket 4.3 23:34:18 10° NNW 23:39:21 59° WSW 23:41:44 30° S
Cosmos 371 Rocket 3.2 23:37:49 10° NNW 23:42:39 83° WSW 23:44:22 40° SSE
USA 234 3.7 23:37:00 10° NE 23:43:27 63° NW 23:49:52 10° WSW
H-2A R/B 2.8 23:41:24 23° SSW 23:44:29 50° W 23:49:45 10° NNW
Cosmos 1503 Rocket 4.5 23:43:59 36° SE 23:44:56 40° ESE 23:49:45 10° NE
Cosmos 1603 4.0 23:41:13 10° NNW 23:46:47 58° WSW 23:49:18 31° S
Abrixas rocket 3.0 23:43:47 10° NW 23:46:56 46° NNE 23:47:34 40° ENE
PSLV R/B 3.9 23:49:41 40° NE 23:49:41 40° NE 23:51:55 10° N
CZ-4C R/B 4.3 23:53:11 35° E 23:53:57 38° ENE 23:57:59 10° N
